OpenBCM V2.0.3 (Linux)

Packet Radio Mailbox

IZ3LSV

[San Dona' di P. JN]

 Login: GUEST





  
LU9DCE > KEP      08.12.19 10:45l 242 Lines 12013 Bytes #999 (0) @ WW
BID : 2946_LU9DCE
Read: GUEST
Subj: TLE 22 11
Path: IZ3LSV<IK7IJR<IW2OHX<IR2UBX<EA2RCF<LU9DCE
Sent: 191122/1600Z 2946@LU9DCE.TOR.BA.ARG.SOAM LinBPQ6.0.19

            __    _  _  ___  ____   ___  ____    ____  ____  ____
           (  )  / )( \/ _ \(    \ / __)(  __)  (  _ \(  _ \/ ___)
           / (_/\) \/ (\__  )) D (( (__  ) _)    ) _ ( ) _ (\___ \
           \____/\____/(___/(____/ \___)(____)  (____/(____/(____/
               ESTACION DE PACKET RADIO - BUENOS AIRES (GF05OM)
                   BOLETINES INFORMATIVOS PROGRAMADOS (BIP)
                  SLACKWARE LINUX - HELLOCODELINUX@GMAIL.COM
+----------------------------------------------------------------------------+
OSCAR 7
1  7530U 74089B   19325.73173906 -.00000028  00000-0  10971-3 0  9991
2  7530 101.7684 291.9147 0012505  46.4941  76.4271 12.53640843 60074
OSCAR 11 (UoSAT 2)
1 14781U 84021B   19326.49495011  .00000109  00000-0  19497-4 0  9994
2 14781  97.6013 343.7135 0009037 155.6992 204.4651 14.83121932922000
OSCAR 19 (LUSAT)
1 20442U 90005G   19326.08131748 -.00000006  00000-0  13975-4 0  9995
2 20442  98.6659 267.9282 0012681  51.8462 308.3862 14.32938405558778
EYESAT A
1 22825U 93061C   19326.50453966 -.00000000  00000-0  17983-4 0  9990
2 22825  98.9157 318.8163 0007388 261.6967  98.3377 14.30071654364363
ITAMSAT
1 22826U 93061D   19326.53959415  .00000013  00000-0  22974-4 0  9993
2 22826  98.9097 318.8241 0007948 248.8360 111.1973 14.30406059364570
RADIO ROSTO
1 23439U 94085A   19325.87729552 -.00000033 +00000-0 +27423-3 0  9990
2 23439 064.8159 223.5502 0145553 082.6375 279.1064 11.27568749025500
JAS 2
1 24278U 96046B   19326.38542388 -.00000054  00000-0 -19160-4 0  9992
2 24278  98.5612  98.7215 0350187 193.6800 165.4658 13.53094776148990
TECHSAT 1B
1 25397U 98043D   19326.41584342 -.00000011  00000-0  14306-4 0  9993
2 25397  98.7047 264.7572 0000767   1.3668 358.7512 14.23674680110172
ISS (ZARYA)
1 25544U 98067A   19326.02933650  .00002964  00000-0  59851-4 0  9992
2 25544  51.6453 298.7155 0006320 308.9401 159.4934 15.50025989199748
PCSAT
1 26931U 01043C   19325.96810610 -.00000023 +00000-0 +22999-4 0  9991
2 26931 067.0509 320.4069 0007406 265.4849 094.5406 14.30559338947255
SAUDISAT 1C
1 27607U 02058C   19326.51132057 -.00000032  00000-0  16382-4 0  9992
2 27607  64.5550 290.1340 0071881 225.8316 133.6865 14.75590297910179
CUTE-1
1 27844U 03031E   19325.48639045  .00000058  00000-0  45781-4 0  9993
2 27844  98.6844 331.3732 0008940 303.7672  56.2654 14.22206465850437
CUBESAT XI 4
1 27848U 03031J   19325.87490314 +.00000048 +00000-0 +41815-4 0  9997
2 27848 098.6917 332.2865 0008953 315.6350 044.4109 14.21797971850304
MOZHAYETS 4
1 27939U 03042A   19326.40018417  .00000098  00000-0  26270-4 0  9993
2 27939  98.0624  99.3763 0011778 293.9732  66.0257 14.66819247863514
CUBESAT XI 5
1 28895U 05043F   19325.85110565 +.00000145 +00000-0 +36710-4 0  9996
2 28895 097.9814 103.4457 0016108 215.0740 144.9403 14.63712869750094
CUTE-1.7+APD II
1 32785U 08021C   19326.53437102  .00000258  00000-0  33372-4 0  9999
2 32785  97.5582 318.9241 0014546 101.5859 258.6993 14.88377442627016
DELFI C3
1 32789U 08021G   19325.71207627  .00000904  00000-0  63875-4 0  9998
2 32789  97.4466  10.5392 0010894 316.6401  43.3970 15.07269287630462
SEEDS
1 32791U 08021J   19326.48906632  .00000464  00000-0  52329-4 0  9991
2 32791  97.5322 324.9831 0014797  77.1977 283.0894 14.90915409627470
YUBELEINY
1 32953U 08025A   19326.34666874  .00000021  00000-0  75656-4 0  9998
2 32953  82.5069  47.3360 0020174 146.5251 213.7116 12.43092320521774
PRISM (HITOMI)
1 33493U 09002B   19326.50117646  .00000646  00000-0  61847-4 0  9990
2 33493  98.1275 253.4274 0016030  28.9000 331.3105 14.96816585588608
KKS-1 (KISEKI)
1 33499U 09002H   19326.53345226  .00000136  00000-0  27956-4 0  9993
2 33499  98.3358 170.1597 0010315  69.9563 290.2754 14.75481398582356
SWISSCUBE
1 35932U 09051B   19326.45507738  .00000134  00000-0  41204-4 0  9990
2 35932  98.5995 137.1650 0008382  50.5416 309.6522 14.56331730539595
BEESAT
1 35933U 09051C   19326.44875167  .00000121  00000-0  38404-4 0  9998
2 35933  98.6009 138.9786 0006757  63.2123 296.9764 14.56414993539704
ITUPSAT 1
1 35935U 09051E   19326.45963368  .00000125  00000-0  39980-4 0  9996
2 35935  98.6117 139.2147 0009037  60.3085 299.9010 14.55568915539441
XIWANG-1 (HOPE-1)
1 36122U 09072B   19325.77320985 -.00000053 +00000-0 -29160-4 0  9995
2 36122 100.0803 320.8554 0007494 350.2779 009.8179 13.16352001477411
TISAT 1
1 36799U 10035E   19326.10012212  .00000278  00000-0  34154-4 0  9991
2 36799  98.1738 123.6477 0011064 295.6405  64.3669 14.91207688508075
JUGNU
1 37839U 11058B   19325.70939833  .00000317  00000-0  27167-4 0  9995
2 37839  19.9606 108.6529 0018884 247.2850 231.4305 14.12664806419348
SRMSAT
1 37841U 11058D   19325.91448375 +.00000296 +00000-0 +17260-4 0  9996
2 37841 019.9700 167.4221 0011908 112.6929 019.3174 14.10643701418682
M-CUBED/EXP-1 PRIME
1 37855U 11061F   19325.50567020  .00001826  00000-0  98120-4 0  9993
2 37855 101.7231 301.1494 0172563 334.8665  24.4220 15.05802062440221
HORYU 2
1 38340U 12025D   19325.79371083 +.00000188 +00000-0 +35440-4 0  9993
2 38340 098.3115 008.9246 0011156 353.1624 006.9430 14.75777112393777
STRAND 1
1 39090U 13009E   19326.52089192  .00000033  00000-0  26858-4 0  9990
2 39090  98.4713 169.7389 0009113 176.2287 183.8969 14.35106093352887
SOMP
1 39134U 13015E   19325.85252128 +.00001294 +00000-0 +67304-4 0  9993
2 39134 064.8631 234.3851 0038012 277.4957 082.1852 15.20517094363957
BEESAT 3
1 39135U 13015F   19325.79099708 +.00001050 +00000-0 +60742-4 0  9999
2 39135 064.8670 255.1010 0040639 282.1961 077.4615 15.17744816363544
BEESAT 2
1 39136U 13015G   19325.82175305  .00001122  00000-0  65722-4 0  9995
2 39136  64.8690 259.2832 0030373 287.3939  72.3866 15.17159883363850
CUBEBUG 1
1 39153U 13018D   19326.21466789  .00000204  00000-0  33457-4 0  9990
2 39153  97.9820  63.4920 0017948  54.4921 305.7962 14.80627542354975
ZACUBE
1 39417U 13066B   19326.50444154  .00000214  00000-0  33323-4 0  9993
2 39417  97.5617 331.1886 0057630 239.0995 120.4545 14.81181351324259
TRITON 1
1 39427U 13066M   19326.17164357  .00000237  00000-0  45605-4 0  9992
2 39427  97.6972 294.0502 0114431  25.1582 335.5138 14.67908833321290
GOMX 1
1 39430U 13066Q   19326.50686622  .00000181  00000-0  41398-4 0  9990
2 39430  97.7660 272.8830 0152061 119.5421 242.1030 14.59311199319473
HUMSAT D
1 39433U 13066T   19325.58359199  .00000413  00000-0  45393-4 0  9993
2 39433  97.5354   6.5689 0031843 138.5392 221.8252 14.92305561326325
CUBEBUG 2
1 39440U 13066AA  19326.49876906  .00000231  00000-0  39304-4 0  9995
2 39440  97.6128 315.7622 0078890 296.1036  63.2072 14.75919979323100
FUNCUBE 1
1 39444U 13066AE  19325.67513826  .00000279  00000-0  40693-4 0  9992
2 39444  97.5583 332.4943 0056812 234.9149 124.6731 14.82013256323032
UWE-3
1 39446U 13066AG  19326.43738942  .00000212  00000-0  34881-4 0  9996
2 39446  97.5865 322.8663 0068492 268.5889  90.7476 14.78454034322429
SPROUT
1 39770U 14029E   19326.37535682  .00000412  00000-0  51535-4 0  9992
2 39770  97.8921  68.7216 0007953 295.3100  64.7288 14.87509108298128
UNISAT 6
1 40012U 14033C   19326.48700714  .00000171  00000-0  32947-4 0  9998
2 40012  97.7336 186.1571 0057363 312.9302  46.7102 14.74035165291780
DUCHIFAT 1
1 40021U 14033M   19325.74365836  .00000537  00000-0  60490-4 0  9998
2 40021  97.9294 250.8789 0011501 255.0537 104.9408 14.90741571294799
QB50P1
1 40025U 14033R   19326.01069880  .00000270  00000-0  34672-4 0  9990
2 40025  97.9074 245.4348 0011022 265.4013  94.5945 14.89023736294583
CHUBUSAT 1
1 40300U 14070C   19326.11760755  .00000487  00000-0  24071-4 0  9999
2 40300  97.3125  36.2344 0018723 224.4420 225.7296 15.22255972279817
NUDT-PHONESAT
1 40900U 15049B   19326.54397909  .00001887  00000-0  82421-4 0  9994
2 40900  97.4362 334.3793 0012738   2.1960 117.9684 15.23299960231533
ZDPS 2A
1 40901U 15049C   19326.52687176  .00000665  00000-0  36062-4 0  9994
2 40901  97.4620 330.1176 0014101  23.4451 133.3788 15.17938688231028
ZDPS 2B
1 40902U 15049D   19326.56207641  .00000954  00000-0  50382-4 0  9996
2 40902  97.4585 327.5248 0014021  21.1307 103.6652 15.17829386231007
XW-2A
1 40903U 15049E   19326.49217248  .00001418  00000-0  34853-4 0  9994
2 40903  97.3188  10.0136 0012146 302.8704 164.5083 15.42338176234414
KAITUO 1A
1 40904U 15049F   19326.55887731  .00000272  00000-0  17802-4 0  9994
2 40904  97.4719 325.9345 0015523  29.4572  85.1340 15.15509454230759
OBJECT G
1 40905U 15049G   19326.55353394  .00000222  00000-0  15625-4 0  9994
2 40905  97.4775 323.3195 0016444  25.1158  89.7075 15.14393903230612
XW-2C
1 40906U 15049H   19326.39374156  .00000727  00000-0  41449-4 0  9999
2 40906  97.4727 325.9300 0015453  22.1374  85.5359 15.15831869230733
XW-2D
1 40907U 15049J   19326.55092814  .00000638  00000-0  36610-4 0  9991
2 40907  97.4708 325.7680 0014780  18.6810  97.3962 15.16033025230773
LILACSAT 2
1 40908U 15049K   19326.51793715  .00000275  00000-0  18787-4 0  9998
2 40908  97.4847 324.3761 0016582  25.9868  92.7323 15.13895833230533
XW-2F
1 40910U 15049M   19326.55908292  .00000847  00000-0  45476-4 0  9993
2 40910  97.4661 328.0209 0014883  10.7934 104.3366 15.17545991230804
XW-2B
1 40911U 15049N   19326.52537828  .00000735  00000-0  41717-4 0  9994
2 40911  97.4722 326.4186 0014726  19.7058  99.0046 15.15962997230667
KAITUO 1B
1 40912U 15049P   19326.54828649  .00001124  00000-0  55466-4 0  9990
2 40912  97.4505 331.8990 0014653 351.4788 125.8743 15.19891145231130
TIANWANG 1C (TW-1C)
1 40926U 15051B   19326.44444627  .00011789  00000-0  15231-3 0  9990
2 40926  97.1164  12.5608 0008575 138.6198 278.0512 15.59061225234554
